Regional Weather Roundup
Issued by NWS

Home | Current Version | Previous Version | Graphics & Text | Print | Product List | Glossary On
Versions: 1 2 3 4 5 6 7 8 9 10 11 12 13 14 15 16 17 18 19 20 21 22 23 24 25 26 27 28 29 30 31 32 33 34 35 36 37 38 39 40 41 42 43 44 45 46 47 48 49 50
000
ASUS43 KFSD 041902
RWRSD

WEATHER ROUNDUP FOR SOUTH DAKOTA
NATIONAL WEATHER SERVICE SIOUX FALLS SD
200 PM CDT FRI SEP 04 2015

NOTE: "FAIR" INDICATES FEW OR NO CLOUDS BELOW 12,000 FEET WITH NO
SIGNIFICANT WEATHER AND/OR OBSTRUCTIONS TO VISIBILITY.


SDZ001>005-009-010-012>017-042000-
NORTHWEST AND NORTH CENTRAL SOUTH DAKOTA

CITY           SKY/WX    TMP DP  RH WIND       PRES   REMARKS
BUFFALO          N/A     82  59  45 VRB3      29.77F
MOBRIDGE       MOSUNNY   89  63  41 SE8G17    29.75F
$$

SDZ012>016-024>037-041>051-057-063-072>074-042000-
SOUTHWEST AND SOUTH CENTRAL SOUTH DAKOTA

CITY           SKY/WX    TMP DP  RH WIND       PRES   REMARKS
RAPID CTY ARPT SUNNY     86  53  32 NW3       29.82F
PIERRE         SUNNY     88  67  49 SE13      29.73F
CUSTER         SUNNY     83  42  23 W7        29.98S
PHILIP         SUNNY     89  60  37 CALM      29.76F
PINE RIDGE     SUNNY     89  49  25 VRB3      29.84F
WINNER         FAIR      88  62  41 SE6       29.77F
$$

SDZ004>011-016>023-039-040-042000-
NORTHEAST SOUTH DAKOTA

CITY           SKY/WX    TMP DP  RH WIND       PRES   REMARKS
ABERDEEN       MOSUNNY   84  68  58 SE6       29.78F
WATERTOWN      PTSUNNY   81  69  67 SE13      29.83F
BROOKINGS      CLOUDY   N/A N/A N/A SE13      29.87S
$$

SDZ017-020-022-023-036>040-048>070-042000-
SOUTHEAST SOUTH DAKOTA

CITY           SKY/WX    TMP DP  RH WIND       PRES   REMARKS
SIOUX FALLS    CLOUDY    75  69  81 E13       29.86S
HURON          SUNNY     86  69  56 S12G21    29.76F
CHAMBERLAIN    MOSUNNY   86  68  55 S10       29.76F
MITCHELL       MOSUNNY   89  68  49 S18G25    29.77F
YANKTON        SUNNY     82  72  69 SE15      29.80F
$$

ABBREVIATIONS USED IN REMARKS
   TC - TEMPERATURE IN CELSIUS
  WCI - WIND CHILL INDEX
   HX - HEAT INDEX
  VSB - VISIBILITY



USA.gov is the U.S. government's official web portal to all federal, state and local government web resources and services.